Regional Weather Roundup
Issued by NWS Sioux Falls, SD

Home | Current Version | Previous Version | Text Only | Print | Product List | Glossary Off
Versions: 1 2 3 4 5 6 7 8 9 10 11 12 13 14 15 16 17 18 19 20 21 22 23 24 25 26 27 28 29 30 31 32 33 34 35 36 37 38 39 40 41 42 43 44 45 46 47 48 49 50

136
ASUS43 KFSD 102110
RWRFSD

WEATHER ROUNDUP FOR SE SOUTH DAKOTA/SW MINNESOTA/NW IOWA
NATIONAL WEATHER SERVICE SIOUX FALLS SD
300 PM CST SAT DEC 10 2016

NOTE: "FAIR" INDICATES FEW OR NO CLOUDS BELOW 12,000 FEET WITH NO
SIGNIFICANT WEATHER AND OR OBSTRUCTIONS TO VISIBILITY.


SDZ038>040-050-052>070-102200-
SOUTHEAST SOUTH DAKOTA

CITY           SKY/WX    TMP DP  RH WIND       PRES   REMARKS
BROOKINGS      LGT SNOW  10   6  84 E15       30.09F FOG     WCI  -7
CHAMBERLAIN      N/A     16  14  90 E9        29.98F WCI   5
HURON          CLOUDY    13   9  84 E12       30.07F WCI  -1
MADISON        FLURRIES  10  10 100 E16       30.08F WCI  -7
MITCHELL       CLOUDY    17  14  88 SE22      30.04F WCI   0
SIOUX FALLS    FLURRIES  15  12  88 E20G25    30.09F WCI  -2
WINNER         CLOUDY    17  13  84 E12       29.92F WCI   4
YANKTON        CLOUDY    21  18  86 E15G21    30.04F WCI   8
$$

MNZ071-072-080-081-089-090-097-098-102200-
SOUTHWEST MINNESOTA

CITY           SKY/WX    TMP DP  RH WIND       PRES   REMARKS
FAIRMONT       LGT SNOW  10   9  92 E9        30.26F FOG     WCI  -2
JACKSON        LGT SNOW  10   7  85 E10       30.22F WCI  -3
LUVERNE        CLOUDY    14  10  85 E15       30.15F HAZE    WCI  -1
MARSHALL       LGT SNOW   8   3  80 E13       30.22F WCI  -8
MONTEVIDEO     LGT SNOW   7   3  85 SE10      30.27F WCI  -8
PIPESTONE      LGT SNOW  10   7  85 SE15      30.12F WCI  -6
REDWOOD FALLS  LGT SNOW  10   4  76 SE9       30.28F WCI  -3
TRACY          LGT SNOW  10   6  85 E12       30.22F WCI  -5
WINDOM         LGT SNOW  10   7  85 MISG      30.22F VSB 1
WORTHINGTON    LGT SNOW  11   8  88 E15       30.17F FOG     WCI  -5
$$

IAZ001>003-012>014-020>022-031-032-NEZ013-014-SDZ071-102200-
NORTHWEST IOWA

CITY           SKY/WX    TMP DP  RH WIND       PRES   REMARKS
CHEROKEE       CLOUDY    21  19  91 E10G16    30.16F WCI  10
DENISON        CLOUDY    23  19  86 E10       30.15F WCI  12
ESTHERVILLE    LGT SNOW  13  10  88 E13       30.22F FOG     WCI  -2
LE MARS        CLOUDY    21  18  86 E15G22    30.13F WCI   8
ORANGE CITY    CLOUDY    19  18  93 E13       30.12F WCI   7
SHELDON        CLOUDY    16  14  93 E16       30.13F WCI   0
SIOUX CITY     CLOUDY    27  20  75 SE20      30.10F WCI  13
SPENCER        CLOUDY    16  12  84 E13       30.20F WCI   2
STORM LAKE     CLOUDY    19  18  93 SE14      30.16F WCI   6
$$

ABBREVIATIONS USED IN REMARKS
   TC - TEMPERATURE IN CELSIUS
  WCI - WIND CHILL INDEX
   HX - HEAT INDEX
  VSB - VISIBILITY





USA.gov is the U.S. government's official web portal to all federal, state and local government web resources and services.